Location: Hannover
(52.3723°N, 9.7339°E)
Time: 20:11:42
(UTC+01:00)

ISS - Pass Details

Date: 11 November 2017
Orbit: 401 x 407 km, 51.6° (Epoch: 18 November)

Event Time Altitude Azimuth Distance (km) Brightness Sun altitude
Exits shadow 05:10:16 52° 113° (ESE) 506 -3.1 -22.1°
Drops below altitude 10° 05:12:51 10° 100° (E) 1,456 0.1 -21.7°
Sets 05:14:56 0° 99° (E) 2,315 1.5 -21.4°
